Directory Listing
Index of /dewikisource/20260301/

Index of /dewikisource/20260301/


../
dewikisource-20260301-all-titles-in-ns0.gz         01-Mar-2026 14:52      2M
dewikisource-20260301-all-titles.gz                01-Mar-2026 14:52      3M
dewikisource-20260301-babel.sql.gz                 01-Mar-2026 13:35    2356
dewikisource-20260301-category.sql.gz              01-Mar-2026 13:34    114K
dewikisource-20260301-categorylinks.sql.gz         01-Mar-2026 13:34     22M
dewikisource-20260301-change_tag.sql.gz            01-Mar-2026 13:35      4M
dewikisource-20260301-change_tag_def.sql.gz        01-Mar-2026 13:35    1532
dewikisource-20260301-externallinks.sql.gz         01-Mar-2026 13:34     16M
dewikisource-20260301-geo_tags.sql.gz              01-Mar-2026 13:35     886
dewikisource-20260301-image.sql.gz                 01-Mar-2026 13:34    353K
dewikisource-20260301-imagelinks.sql.gz            01-Mar-2026 13:34      6M
dewikisource-20260301-iwlinks.sql.gz               01-Mar-2026 13:35      5M
dewikisource-20260301-langlinks.sql.gz             01-Mar-2026 13:34    360K
dewikisource-20260301-linktarget.sql.gz            01-Mar-2026 13:34      8M
dewikisource-20260301-md5sums.json                 01-Mar-2026 18:19    3144
dewikisource-20260301-md5sums.txt                  01-Mar-2026 18:19    2934
dewikisource-20260301-page.sql.gz                  01-Mar-2026 13:34     18M
dewikisource-20260301-page_props.sql.gz            01-Mar-2026 13:35      5M
dewikisource-20260301-page_restrictions.sql.gz     01-Mar-2026 13:34      4M
dewikisource-20260301-pagelinks.sql.gz             01-Mar-2026 13:34     17M
dewikisource-20260301-pages-articles-multistrea..> 01-Mar-2026 14:40      5M
dewikisource-20260301-pages-articles-multistrea..> 01-Mar-2026 14:40    563M
dewikisource-20260301-pages-articles.xml.bz2       01-Mar-2026 14:16    534M
dewikisource-20260301-pages-articles.xml.bz2.in..> 01-Mar-2026 14:09      3M
dewikisource-20260301-pages-logging.xml.gz         01-Mar-2026 14:54     25M
dewikisource-20260301-pages-meta-current.xml.bz2   01-Mar-2026 14:50    567M
dewikisource-20260301-pages-meta-history.xml.7z    01-Mar-2026 18:19      2G
dewikisource-20260301-pages-meta-history.xml.bz2   01-Mar-2026 17:50      7G
dewikisource-20260301-protected_titles.sql.gz      01-Mar-2026 13:35    1533
dewikisource-20260301-redirect.sql.gz              01-Mar-2026 13:35    150K
dewikisource-20260301-runsettings.txt              01-Mar-2026 12:59      28
dewikisource-20260301-sha1sums.json                01-Mar-2026 18:19    3449
dewikisource-20260301-sha1sums.txt                 01-Mar-2026 18:19    3238
dewikisource-20260301-site_stats.sql.gz            01-Mar-2026 13:34     851
dewikisource-20260301-siteinfo-namespaces.json.gz  01-Mar-2026 14:52    6652
dewikisource-20260301-siteinfo2-namespacesv2.js..> 01-Mar-2026 14:52    6901
dewikisource-20260301-sites.sql.gz                 01-Mar-2026 13:35     23K
dewikisource-20260301-stub-articles.xml.gz         01-Mar-2026 13:30     52M
dewikisource-20260301-stub-meta-current.xml.gz     01-Mar-2026 13:30     55M
dewikisource-20260301-stub-meta-history.xml.gz     01-Mar-2026 13:30    318M
dewikisource-20260301-templatelinks.sql.gz         01-Mar-2026 13:34     18M
dewikisource-20260301-user_former_groups.sql.gz    01-Mar-2026 13:34     887
dewikisource-20260301-user_groups.sql.gz           01-Mar-2026 13:34    1102
dewikisource-20260301-wbc_entity_usage.sql.gz      01-Mar-2026 13:35     11M
dumpruninfo.json                                   01-Mar-2026 18:19    2562
dumpruninfo.txt                                    01-Mar-2026 18:19    2202
dumpspecialfiles.json                              01-Mar-2026 18:19     133
dumpstatus.json                                    01-Mar-2026 18:19     12K
md5sums-dewikisource-20260301-all-titles-in-ns0..> 01-Mar-2026 14:52      77
md5sums-dewikisource-20260301-all-titles.gz.txt    01-Mar-2026 14:52      70
md5sums-dewikisource-20260301-babel.sql.gz.txt     01-Mar-2026 13:35      69
md5sums-dewikisource-20260301-category.sql.gz.txt  01-Mar-2026 13:34      72
md5sums-dewikisource-20260301-categorylinks.sql..> 01-Mar-2026 13:34      77
md5sums-dewikisource-20260301-change_tag.sql.gz..> 01-Mar-2026 13:35      74
md5sums-dewikisource-20260301-change_tag_def.sq..> 01-Mar-2026 13:35      78
md5sums-dewikisource-20260301-externallinks.sql..> 01-Mar-2026 13:34      77
md5sums-dewikisource-20260301-geo_tags.sql.gz.txt  01-Mar-2026 13:35      72
md5sums-dewikisource-20260301-image.sql.gz.txt     01-Mar-2026 13:34      69
md5sums-dewikisource-20260301-imagelinks.sql.gz..> 01-Mar-2026 13:34      74
md5sums-dewikisource-20260301-iwlinks.sql.gz.txt   01-Mar-2026 13:35      71
md5sums-dewikisource-20260301-langlinks.sql.gz.txt 01-Mar-2026 13:34      73
md5sums-dewikisource-20260301-linktarget.sql.gz..> 01-Mar-2026 13:34      74
md5sums-dewikisource-20260301-page.sql.gz.txt      01-Mar-2026 13:34      68
md5sums-dewikisource-20260301-page_props.sql.gz..> 01-Mar-2026 13:35      74
md5sums-dewikisource-20260301-page_restrictions..> 01-Mar-2026 13:34      81
md5sums-dewikisource-20260301-pagelinks.sql.gz.txt 01-Mar-2026 13:34      73
md5sums-dewikisource-20260301-pages-articles-mu..> 01-Mar-2026 14:41      97
md5sums-dewikisource-20260301-pages-articles-mu..> 01-Mar-2026 14:41      91
md5sums-dewikisource-20260301-pages-articles.xm..> 01-Mar-2026 14:16      79
md5sums-dewikisource-20260301-pages-logging.xml..> 01-Mar-2026 14:54      77
md5sums-dewikisource-20260301-pages-meta-curren..> 01-Mar-2026 14:50      83
md5sums-dewikisource-20260301-pages-meta-histor..> 01-Mar-2026 18:19      82
md5sums-dewikisource-20260301-pages-meta-histor..> 01-Mar-2026 17:51      83
md5sums-dewikisource-20260301-protected_titles...> 01-Mar-2026 13:35      80
md5sums-dewikisource-20260301-redirect.sql.gz.txt  01-Mar-2026 13:35      72
md5sums-dewikisource-20260301-site_stats.sql.gz..> 01-Mar-2026 13:34      74
md5sums-dewikisource-20260301-siteinfo-namespac..> 01-Mar-2026 14:52      84
md5sums-dewikisource-20260301-siteinfo2-namespa..> 01-Mar-2026 14:52      87
md5sums-dewikisource-20260301-sites.sql.gz.txt     01-Mar-2026 13:35      69
md5sums-dewikisource-20260301-stub-articles.xml..> 01-Mar-2026 13:30      77
md5sums-dewikisource-20260301-stub-meta-current..> 01-Mar-2026 13:30      81
md5sums-dewikisource-20260301-stub-meta-history..> 01-Mar-2026 13:30      81
md5sums-dewikisource-20260301-templatelinks.sql..> 01-Mar-2026 13:34      77
md5sums-dewikisource-20260301-user_former_group..> 01-Mar-2026 13:34      82
md5sums-dewikisource-20260301-user_groups.sql.g..> 01-Mar-2026 13:34      75
md5sums-dewikisource-20260301-wbc_entity_usage...> 01-Mar-2026 13:35      80
report.json                                        01-Mar-2026 18:19    6488
sha1sums-dewikisource-20260301-all-titles-in-ns..> 01-Mar-2026 14:52      85
sha1sums-dewikisource-20260301-all-titles.gz.txt   01-Mar-2026 14:52      78
sha1sums-dewikisource-20260301-babel.sql.gz.txt    01-Mar-2026 13:35      77
sha1sums-dewikisource-20260301-category.sql.gz.txt 01-Mar-2026 13:34      80
sha1sums-dewikisource-20260301-categorylinks.sq..> 01-Mar-2026 13:34      85
sha1sums-dewikisource-20260301-change_tag.sql.g..> 01-Mar-2026 13:35      82
sha1sums-dewikisource-20260301-change_tag_def.s..> 01-Mar-2026 13:35      86
sha1sums-dewikisource-20260301-externallinks.sq..> 01-Mar-2026 13:34      85
sha1sums-dewikisource-20260301-geo_tags.sql.gz.txt 01-Mar-2026 13:35      80
sha1sums-dewikisource-20260301-image.sql.gz.txt    01-Mar-2026 13:34      77
sha1sums-dewikisource-20260301-imagelinks.sql.g..> 01-Mar-2026 13:34      82
sha1sums-dewikisource-20260301-iwlinks.sql.gz.txt  01-Mar-2026 13:35      79
sha1sums-dewikisource-20260301-langlinks.sql.gz..> 01-Mar-2026 13:34      81
sha1sums-dewikisource-20260301-linktarget.sql.g..> 01-Mar-2026 13:34      82
sha1sums-dewikisource-20260301-page.sql.gz.txt     01-Mar-2026 13:34      76
sha1sums-dewikisource-20260301-page_props.sql.g..> 01-Mar-2026 13:35      82
sha1sums-dewikisource-20260301-page_restriction..> 01-Mar-2026 13:34      89
sha1sums-dewikisource-20260301-pagelinks.sql.gz..> 01-Mar-2026 13:34      81
sha1sums-dewikisource-20260301-pages-articles-m..> 01-Mar-2026 14:41     105
sha1sums-dewikisource-20260301-pages-articles-m..> 01-Mar-2026 14:41      99
sha1sums-dewikisource-20260301-pages-articles.x..> 01-Mar-2026 14:16      87
sha1sums-dewikisource-20260301-pages-logging.xm..> 01-Mar-2026 14:54      85
sha1sums-dewikisource-20260301-pages-meta-curre..> 01-Mar-2026 14:50      91
sha1sums-dewikisource-20260301-pages-meta-histo..> 01-Mar-2026 18:19      90
sha1sums-dewikisource-20260301-pages-meta-histo..> 01-Mar-2026 17:52      91
sha1sums-dewikisource-20260301-protected_titles..> 01-Mar-2026 13:35      88
sha1sums-dewikisource-20260301-redirect.sql.gz.txt 01-Mar-2026 13:35      80
sha1sums-dewikisource-20260301-site_stats.sql.g..> 01-Mar-2026 13:34      82
sha1sums-dewikisource-20260301-siteinfo-namespa..> 01-Mar-2026 14:52      92
sha1sums-dewikisource-20260301-siteinfo2-namesp..> 01-Mar-2026 14:52      95
sha1sums-dewikisource-20260301-sites.sql.gz.txt    01-Mar-2026 13:35      77
sha1sums-dewikisource-20260301-stub-articles.xm..> 01-Mar-2026 13:30      85
sha1sums-dewikisource-20260301-stub-meta-curren..> 01-Mar-2026 13:30      89
sha1sums-dewikisource-20260301-stub-meta-histor..> 01-Mar-2026 13:30      89
sha1sums-dewikisource-20260301-templatelinks.sq..> 01-Mar-2026 13:34      85
sha1sums-dewikisource-20260301-user_former_grou..> 01-Mar-2026 13:34      90
sha1sums-dewikisource-20260301-user_groups.sql...> 01-Mar-2026 13:34      83
sha1sums-dewikisource-20260301-wbc_entity_usage..> 01-Mar-2026 13:35      88
status.html                                        01-Mar-2026 18:19     119
tableinfo.json                                     01-Mar-2026 09:01    1569